[[{"header":{"parameterUnit":"m.s-1","parameterCategory":1,"la1":30.2991,"la2":30.254,"lo1":-89.0895,"lo2":-89.0444,"dy":0.0017,"dx":0.0017,"nx":28,"ny":28,"refTime":"2024-10-18T09:00:00:Z","depth":0,"parameterNumber":2,"parameterNumberName":"U-component_of_WINDS"},"data":[0,0,0,0,0,0,0,0,0,0,0,0,0,0,0,0,0,0,0,0,0,0,0,0,0,0,0,0,0,0,0,0,0,0,0,0,0,0,0,0,0,0,0,0,0,0,0,0,0,0,0,0,0,0,0,0,0,0,-4.0333,-4.0333,0,-4.0319,-4.0319,-4.0319,-4.0222,-4.022,-4.0217,-4.0215,-4.0202,-4.0204,-4.0206,0,0,0,0,0,0,0,0,0,0,0,0,0,-4.0278,-4.028,-4.0333,-4.0333,-4.0333,-4.0319,-4.0319,-4.0319,-4.0222,-4.0219,-4.0217,-4.0214,-4.0202,-4.0204,-4.0206,0,0,0,0,0,0,0,0,0,0,0,0,0,-4.0287,-4.028,-4.0333,-4.0283,-4.0278,-4.0319,-4.0319,-4.0319,-4.0223,-4.0219,-4.0216,-4.0212,-4.0201,-4.0204,-4.0207,-4.0295,0,0,-4.0215,-4.0216,0,0,0,0,0,0,0,0,-4.0287,-4.0289,-4.029,-4.0286,-4.0281,-4.0269,-4.0295,-4.0311,-4.0224,-4.0244,-4.0215,-4.0211,-4.0227,-4.0228,-4.0233,-4.0295,-4.0294,-4.0215,-4.0217,-4.0218,-4.0219,0,0,0,0,0,0,0,-4.0286,-4.0289,-4.0328,-4.0291,-4.0285,-4.0262,-4.0259,-4.0297,-4.0256,-4.0242,-4.0235,-4.0234,-4.0224,-4.0231,-4.0232,-4.0294,-4.0215,-4.0218,-4.022,-4.0221,-4.0429,-4.0433,0,0,0,0,0,0,-4.0292,-4.0289,-4.0328,-4.0327,-4.0275,-4.0266,-4.0263,-4.0276,-4.0255,-4.0248,-4.0238,-4.023,-4.0228,-4.0229,-4.0231,-4.0335,-4.0218,-4.0221,-4.0223,-4.0425,-4.043,-4.0434,0,0,0,0,0,0,-4.0291,-4.0297,-4.0329,-4.0306,-4.0309,-4.027,-4.0287,-4.0278,-4.0284,-4.0252,-4.0244,-4.0252,-4.0225,-4.0227,-4.028,-4.0333,-4.0222,-4.0225,-4.0421,-4.0427,-4.0432,-4.0543,0,0,0,0,0,0,-4.029,-4.0297,-4.033,-4.0308,-4.031,-4.0378,-4.029,-4.028,-4.0289,-4.0279,-4.0263,-4.0257,-4.0222,-4.0277,-4.0283,-4.0335,-4.0227,-4.0416,-4.0424,-4.043,-4.0535,-4.0552,-4.0567,0,0,0,0,0,-4.0289,-4.0361,-4.0332,-4.0337,-4.035,-4.0381,-4.0382,-4.034,-4.0294,-4.0327,-4.0306,-4.0257,-4.0326,-4.0283,-4.0289,-4.0343,-4.0412,-4.0421,-4.043,-4.0527,-4.0548,-4.0566,0,0,0,0,0,0,-4.0391,-4.0358,-4.0324,-4.0392,-4.039,-4.0364,-4.0405,-4.0364,-4.0375,-4.0366,-4.0313,-4.0311,-4.0372,-4.0362,-4.0315,-4.0429,-4.0361,-4.0371,-4.0433,-4.0453,-4.0469,-4.0471,-4.0229,0,0,0,0,0,-4.0421,-4.0448,-4.0418,-4.048,-4.0481,-4.0444,-4.0455,-4.0423,-4.0419,-4.0418,-4.0401,-4.0399,-4.0421,-4.0436,-4.0453,-4.0532,-4.0528,-4.0572,-4.0589,-4.0602,-4.0612,-4.0655,-4.0675,-4.0463,-4.0463,-4.0462,0,0,-4.0484,-4.0469,-4.049,-4.0501,-4.0495,-4.0525,-4.0443,-4.0478,-4.05,-4.0423,-4.0473,-4.046,-4.0455,-4.0522,-4.0551,-4.0516,-4.067,-4.0613,-4.0624,-4.0627,-4.0666,-4.0686,-4.0704,-4.0469,-4.0468,-4.0467,0,0,-4.0615,-4.0606,-4.0658,-4.0654,-4.0647,-4.0622,-4.0634,-4.0615,-4.0604,-4.0653,-4.0596,-4.0622,-4.0659,-4.0658,-4.0663,-4.0795,-4.0751,-4.0802,-4.0887,-4.0929,-4.0946,-4.0961,-4.101,-4.1028,-4.0812,-4.0812,-4.0812,0,-4.0695,-4.0737,-4.069,-4.0729,-4.0736,-4.0667,-4.0721,-4.0719,-4.0719,-4.0726,-4.0687,-4.0733,-4.0725,-4.0791,-4.0824,-4.0829,-4.0843,-4.0804,-4.0947,-4.0961,-4.0974,-4.1021,-4.1039,-4.0818,-4.0817,-4.0817,-4.0816,0,-4.0836,-4.0867,-4.091,-4.0911,-4.0923,-4.0969,-4.093,-4.0948,-4.0915,-4.0894,-4.0945,-4.0933,-4.0948,-4.096,-4.0928,-4.1023,-4.1002,-4.0956,-4.0887,-4.1002,-4.1045,-4.1062,-4.0827,-4.0825,-4.0823,-4.0822,0,0,-4.1032,-4.1007,-4.1024,-4.1024,-4.1011,-4.1034,-4.1078,-4.1092,-4.1109,-4.1111,-4.1147,-4.1181,-4.1138,-4.1144,-4.1111,-4.1148,-4.1256,-4.1097,-4.1096,-4.1129,-4.1362,-4.1399,-4.142,-4.1226,-4.1229,-4.1232,-4.1363,0,-4.1159,-4.1232,-4.1191,-4.1269,-4.1298,-4.1233,-4.1271,-4.1268,-4.125,-4.1272,-4.1252,-4.1278,-4.1218,-4.1222,-4.1255,-4.1236,-4.1303,-4.1226,-4.1261,-4.1263,-4.1267,-4.1442,-4.148,-4.1605,-4.138,-4.1382,-4.1384,0,-4.1317,-4.1326,-4.1408,-4.1391,-4.1402,-4.1437,-4.1447,-4.1469,-4.1465,-4.1449,-4.1456,-4.1414,-4.1457,-4.1388,-4.1447,-4.1396,-4.1408,-4.1401,-4.1405,-4.1408,-4.1332,-4.1452,-4.1643,-4.1663,-4.141,-4.1408,-4.1406,0,-4.1454,-4.1487,-4.154,-4.1542,-4.1524,-4.155,-4.1544,-4.1536,-4.1547,-4.1557,-4.1564,-4.1578,-4.1587,-4.1599,-4.1564,-4.1516,-4.1629,-4.1556,-4.1618,-4.162,-4.1646,-4.1646,-4.1845,-4.1651,-4.1651,-4.1651,-4.165,0,-4.1602,-4.1655,-4.1602,-4.1635,-4.1693,-4.1646,-4.1705,-4.1691,-4.1685,-4.1716,-4.166,-4.169,-4.164,-4.1665,-4.1637,-4.1692,-4.1695,-4.1685,-4.1678,-4.1691,-4.1693,-4.17,-4.1691,-4.1655,-4.1654,-4.1653,-4.1653,0,-4.1766,-4.1732,-4.1786,-4.1764,-4.176,-4.1804,-4.1785,-4.1816,-4.1794,-4.1833,-4.1839,-4.1805,-4.1832,-4.1797,-4.1821,-4.1802,-4.1878,-4.1856,-4.1879,-4.1874,-4.1939,-4.1934,-4.2151,-4.2178,-4.1966,-4.1968,-4.1969,0,-4.1863,-4.1902,-4.1885,-4.1901,-4.1898,-4.1924,-4.1936,-4.1891,-4.1906,-4.1905,-4.1936,-4.1958,-4.1973,-4.202,-4.1998,-4.2016,-4.1996,-4.207,-4.1998,-4.2012,-4.2,-4.1999,-4.2003,-4.2086,-4.2089,-4.2091,-4.2092,0,-4.204,-4.2022,-4.204,-4.2054,-4.207,-4.2078,-4.2083,-4.2099,-4.2052,-4.2072,-4.2099,-4.2111,-4.2135,-4.2159,-4.2171,-4.2165,-4.2123,-4.2115,-4.2131,-4.2146,-4.2159,-4.2156,-4.1922,-4.2111,-4.2109,-4.2108,-4.2107,-4.2106,-4.2175,-4.2208,-4.2201,-4.2224,-4.2223,-4.2228,-4.2257,-4.2238,-4.2259,-4.2276,-4.2248,-4.2282,-4.2278,-4.229,-4.229,-4.2317,-4.2285,-4.2307,-4.2313,-4.232,-4.2331,-4.2153,-4.2319,-4.2318,-4.2318,-4.2317,-4.2317,0,-4.2351,-4.2343,-4.2365,-4.2374,-4.2392,-4.2349,-4.2352,-4.2371,-4.2402,-4.2401,-4.2418,-4.245,-4.2472,-4.2452,-4.2471,-4.2497,-4.2478,-4.2504,-4.2503,-4.2503,-4.2357,-4.2343,-4.2519,-4.2519,-4.2519,-4.2519,-4.2519,-4.2519,-4.2445,-4.2499,-4.248,-4.2533,-4.2525,-4.2558,-4.2564,-4.257,-4.2569,-4.2607,-4.2626,-4.2612,-4.2604,-4.2623,-4.2642,-4.2636,-4.2646,-4.268,-4.2667,-4.2532,-4.2512,-4.2494,-4.248,-4.2682,-4.2682,-4.281,-4.2811,-4.2812]},{"header":{"parameterUnit":"m.s-1","parameterCategory":1,"la1":30.2991,"la2":30.254,"lo1":-89.0895,"lo2":-89.0444,"dy":0.0017,"dx":0.0017,"nx":28,"ny":28,"refTime":"2024-10-18T09:00:00:Z","depth":0,"parameterNumber":3,"parameterNumberName":"V-component_of_WINDS"},"data":[0,0,0,0,0,0,0,0,0,0,0,0,0,0,0,0,0,0,0,0,0,0,0,0,0,0,0,0,0,0,0,0,0,0,0,0,0,0,0,0,0,0,0,0,0,0,0,0,0,0,0,0,0,0,0,0,0,0,-1.049,-1.049,0,-1.0489,-1.0489,-1.0489,-1.0463,-1.0463,-1.0462,-1.0461,-1.046,-1.0461,-1.0462,0,0,0,0,0,0,0,0,0,0,0,0,0,-1.0472,-1.0472,-1.049,-1.049,-1.049,-1.0489,-1.0489,-1.0489,-1.0463,-1.0462,-1.0462,-1.0461,-1.046,-1.0461,-1.0462,0,0,0,0,0,0,0,0,0,0,0,0,0,-1.0476,-1.0472,-1.049,-1.0477,-1.0476,-1.0489,-1.0489,-1.0489,-1.0463,-1.0462,-1.0461,-1.0461,-1.046,-1.0461,-1.0462,-1.0487,0,0,-1.0464,-1.0465,0,0,0,0,0,0,0,0,-1.0476,-1.0477,-1.0479,-1.0478,-1.0477,-1.0475,-1.0482,-1.0488,-1.0464,-1.0468,-1.0461,-1.046,-1.0466,-1.0467,-1.0468,-1.0487,-1.0487,-1.0465,-1.0465,-1.0465,-1.0466,0,0,0,0,0,0,0,-1.0476,-1.0477,-1.049,-1.0479,-1.0478,-1.0472,-1.0471,-1.0483,-1.0473,-1.0468,-1.0466,-1.0466,-1.0465,-1.0468,-1.0468,-1.0487,-1.0465,-1.0465,-1.0466,-1.0466,-1.0527,-1.0528,0,0,0,0,0,0,-1.0477,-1.0477,-1.049,-1.049,-1.0474,-1.0473,-1.0472,-1.0477,-1.0473,-1.0471,-1.0467,-1.0465,-1.0467,-1.0467,-1.0468,-1.0499,-1.0465,-1.0466,-1.0467,-1.0526,-1.0528,-1.0529,0,0,0,0,0,0,-1.0477,-1.0478,-1.049,-1.0483,-1.0484,-1.0474,-1.0479,-1.0477,-1.0479,-1.0472,-1.047,-1.0471,-1.0466,-1.0467,-1.0483,-1.0498,-1.0467,-1.0467,-1.0525,-1.0527,-1.0528,-1.056,0,0,0,0,0,0,-1.0476,-1.0478,-1.0488,-1.0483,-1.0484,-1.0504,-1.048,-1.0478,-1.0481,-1.0478,-1.0475,-1.0474,-1.0465,-1.0482,-1.0484,-1.0499,-1.0468,-1.0524,-1.0526,-1.0528,-1.0557,-1.0562,-1.0566,0,0,0,0,0,-1.0476,-1.0496,-1.0488,-1.049,-1.0495,-1.0505,-1.0506,-1.0495,-1.0482,-1.0492,-1.0487,-1.0474,-1.0496,-1.0483,-1.0485,-1.0501,-1.0523,-1.0525,-1.0527,-1.0555,-1.0561,-1.0566,0,0,0,0,0,0,-1.0503,-1.0496,-1.0487,-1.0506,-1.0507,-1.0501,-1.0513,-1.0502,-1.0506,-1.0503,-1.049,-1.0489,-1.0508,-1.0506,-1.0492,-1.0526,-1.0507,-1.051,-1.0527,-1.0533,-1.0537,-1.0538,-1.0469,0,0,0,0,0,-1.0512,-1.052,-1.0513,-1.0531,-1.0532,-1.0522,-1.0526,-1.0518,-1.0518,-1.0518,-1.0514,-1.0515,-1.0522,-1.0527,-1.0533,-1.0556,-1.0556,-1.0568,-1.0572,-1.0576,-1.058,-1.0593,-1.0599,-1.0537,-1.0537,-1.0537,0,0,-1.0529,-1.0526,-1.0532,-1.0537,-1.0536,-1.0546,-1.0523,-1.0533,-1.0541,-1.0519,-1.0535,-1.0532,-1.0532,-1.0552,-1.056,-1.0551,-1.0597,-1.0579,-1.0582,-1.0584,-1.0597,-1.0603,-1.0608,-1.0538,-1.0538,-1.0538,0,0,-1.0567,-1.0564,-1.058,-1.058,-1.0579,-1.0573,-1.0576,-1.0572,-1.057,-1.0585,-1.0569,-1.0578,-1.059,-1.0591,-1.0593,-1.0631,-1.0619,-1.0633,-1.0658,-1.0671,-1.0676,-1.068,-1.0696,-1.0701,-1.0636,-1.0636,-1.0636,0,-1.0589,-1.0603,-1.0589,-1.0602,-1.0605,-1.0585,-1.0602,-1.0602,-1.0603,-1.0606,-1.0595,-1.061,-1.0609,-1.063,-1.0639,-1.064,-1.0645,-1.0634,-1.0676,-1.068,-1.0684,-1.0699,-1.0705,-1.0637,-1.0637,-1.0637,-1.0637,0,-1.0631,-1.064,-1.0653,-1.0655,-1.0659,-1.0673,-1.0663,-1.0669,-1.066,-1.0655,-1.0671,-1.0668,-1.0674,-1.0678,-1.0669,-1.0698,-1.0692,-1.0678,-1.0659,-1.0692,-1.0706,-1.0711,-1.064,-1.0639,-1.0639,-1.0638,0,0,-1.0687,-1.0681,-1.0687,-1.0688,-1.0686,-1.0693,-1.0706,-1.0712,-1.0718,-1.0719,-1.0731,-1.0742,-1.0729,-1.0732,-1.0723,-1.0734,-1.0767,-1.072,-1.072,-1.0731,-1.0801,-1.0812,-1.0819,-1.0758,-1.0759,-1.076,-1.0801,0,-1.0725,-1.0748,-1.0737,-1.0761,-1.0771,-1.0752,-1.0764,-1.0764,-1.076,-1.0768,-1.0762,-1.0771,-1.0753,-1.0755,-1.0765,-1.0761,-1.0781,-1.0757,-1.0771,-1.0772,-1.0774,-1.0826,-1.0838,-1.0877,-1.0806,-1.0807,-1.0808,0,-1.0772,-1.0776,-1.0802,-1.0799,-1.0802,-1.0813,-1.0818,-1.0825,-1.0825,-1.0821,-1.0824,-1.0812,-1.0826,-1.0805,-1.0824,-1.0809,-1.0813,-1.0812,-1.0813,-1.0816,-1.0794,-1.0832,-1.0889,-1.0896,-1.0816,-1.0815,-1.0814,0,-1.0814,-1.0825,-1.0842,-1.0843,-1.0839,-1.0848,-1.0847,-1.0845,-1.085,-1.0854,-1.0857,-1.0862,-1.0865,-1.087,-1.086,-1.0846,-1.0882,-1.086,-1.088,-1.0881,-1.089,-1.089,-1.0951,-1.0889,-1.0889,-1.0889,-1.0889,0,-1.0858,-1.0876,-1.0861,-1.0872,-1.0891,-1.0877,-1.0896,-1.0893,-1.0892,-1.0902,-1.0886,-1.0896,-1.0882,-1.0891,-1.0883,-1.0901,-1.0902,-1.09,-1.0899,-1.0903,-1.0904,-1.0908,-1.0906,-1.0891,-1.089,-1.089,-1.089,0,-1.0909,-1.0899,-1.0917,-1.0912,-1.0911,-1.0926,-1.0921,-1.0931,-1.0925,-1.0939,-1.0941,-1.0932,-1.0941,-1.0932,-1.094,-1.0935,-1.0961,-1.0954,-1.0961,-1.096,-1.0982,-1.0981,-1.105,-1.1059,-1.0989,-1.0989,-1.099,0,-1.0939,-1.0952,-1.0948,-1.0954,-1.0954,-1.0963,-1.0968,-1.0955,-1.096,-1.0961,-1.0972,-1.098,-1.0986,-1.1002,-1.0997,-1.1004,-1.0998,-1.1022,-1.0999,-1.1004,-1.1001,-1.1002,-1.1004,-1.1027,-1.1028,-1.1029,-1.1029,0,-1.0995,-1.099,-1.0997,-1.1003,-1.1009,-1.1012,-1.1015,-1.1021,-1.1007,-1.1014,-1.1024,-1.1029,-1.1038,-1.1047,-1.1052,-1.1051,-1.1039,-1.1036,-1.1041,-1.1048,-1.1052,-1.1053,-1.0976,-1.1035,-1.1034,-1.1034,-1.1034,-1.1033,-1.1038,-1.1049,-1.1049,-1.1058,-1.1058,-1.1061,-1.1071,-1.1066,-1.1073,-1.108,-1.1072,-1.1084,-1.1084,-1.109,-1.109,-1.11,-1.1091,-1.1098,-1.11,-1.1103,-1.1107,-1.1049,-1.1101,-1.1101,-1.1101,-1.11,-1.11,0,-1.1095,-1.1094,-1.1102,-1.1106,-1.1113,-1.11,-1.1102,-1.1109,-1.112,-1.1121,-1.1127,-1.1139,-1.1148,-1.1143,-1.115,-1.1159,-1.1154,-1.1162,-1.1162,-1.1163,-1.1114,-1.111,-1.1166,-1.1166,-1.1166,-1.1166,-1.1166,-1.1166,-1.1126,-1.1145,-1.114,-1.1159,-1.1157,-1.1169,-1.1172,-1.1175,-1.1176,-1.119,-1.1197,-1.1193,-1.1192,-1.1199,-1.1207,-1.1205,-1.1209,-1.122,-1.1217,-1.1172,-1.1166,-1.116,-1.1156,-1.1221,-1.1221,-1.1264,-1.1265,-1.1265]}]]